TFL6BH EHAM-LGSM

Flight info

Callsign TFL6BH
Flight time 3h 0m
Altitude 39000
Route EDUPO Z739 MISGO DCT DOJOH DCT DODEN DCT NEGIX DCT DINKU DCT BESNI DCT LATLO DCT OBEDI DCT DIPSA DCT PODET DCT NOVLO DCT PODOB DCT MEDUX UM867 KOGAT DCT ERANA UL737 TSL UN130 MES L609 IKARO UL609 URNIL
Aircraft B38M/M-SADE2E3FGHIJ1RWXYZ/LB1

Departure

Time 2026-05-05 05:30
Airport Amsterdam Airport Schiphol (EHAM)

Arrival

Time 2026-05-05 08:31
Airport Samos Airport (LGSM)
Time Latitude Longitude Altitude Speed Heading
2026-05-05 04:55 52.30667 4.76594 1 ft 0 kts 248°
2026-05-05 05:18 52.30672 4.76615 1 ft 4 kts 248°
2026-05-05 05:18 52.30683 4.76656 1 ft 4 kts 248°
2026-05-05 05:19 52.30688 4.76676 1 ft 4 kts 254°
2026-05-05 05:19 52.30686 4.76713 1 ft 4 kts 307°
2026-05-05 05:19 52.30667 4.76739 1 ft 3 kts 327°
2026-05-05 05:19 52.30665 4.76742 1 ft 1 kts 327°
2026-05-05 05:23 52.30678 4.76731 1 ft 4 kts 342°
2026-05-05 05:23 52.30706 4.76751 1 ft 6 kts 47°
2026-05-05 05:23 52.30701 4.76836 1 ft 9 kts 133°
2026-05-05 05:24 52.30657 4.76925 1 ft 13 kts 102°
2026-05-05 05:24 52.30650 4.77131 1 ft 23 kts 92°
2026-05-05 05:24 52.30639 4.77410 1 ft 26 kts 90°
2026-05-05 05:24 52.30721 4.77595 1 ft 23 kts
2026-05-05 05:25 52.30881 4.77610 1 ft 24 kts
2026-05-05 05:25 52.31048 4.77623 1 ft 25 kts
2026-05-05 05:25 52.31223 4.77639 1 ft 26 kts
2026-05-05 05:25 52.31403 4.77652 1 ft 26 kts 354°
2026-05-05 05:26 52.31552 4.77491 1 ft 27 kts 301°
2026-05-05 05:26 52.31569 4.77186 1 ft 28 kts 266°
2026-05-05 05:26 52.31560 4.76862 1 ft 29 kts 266°
2026-05-05 05:26 52.31548 4.76524 2 ft 30 kts 266°
2026-05-05 05:27 52.31537 4.76175 2 ft 31 kts 268°
2026-05-05 05:27 52.31525 4.75814 1 ft 32 kts 266°
2026-05-05 05:27 52.31512 4.75286 2 ft 12 kts 247°
2026-05-05 05:28 52.31505 4.75235 1 ft 5 kts 267°
2026-05-05 05:28 52.31502 4.75124 1 ft 13 kts 267°
2026-05-05 05:28 52.31497 4.74961 1 ft 15 kts 266°
2026-05-05 05:28 52.31490 4.74776 1 ft 17 kts 266°
2026-05-05 05:29 52.31553 4.74657 2 ft 17 kts 358°
2026-05-05 05:29 52.31661 4.74713 2 ft 17 kts 64°
2026-05-05 05:29 52.31667 4.74837 1 ft 11 kts 86°
2026-05-05 05:29 52.31678 4.75115 -1 ft 57 kts 86°
2026-05-05 05:30 52.31718 4.76222 2 ft 136 kts 86°
2026-05-05 05:30 52.31801 4.78050 354 ft 171 kts 85°
2026-05-05 05:30 52.31835 4.79989 1414 ft 169 kts 89°
2026-05-05 05:30 52.31884 4.81955 2236 ft 181 kts 86°
2026-05-05 05:31 52.31957 4.84127 2810 ft 202 kts 86°
2026-05-05 05:31 52.31928 4.86563 3295 ft 230 kts 104°
2026-05-05 05:31 52.31330 4.89154 3867 ft 253 kts 113°
2026-05-05 05:31 52.30662 4.91809 4884 ft 259 kts 114°
2026-05-05 05:32 52.29945 4.94618 5630 ft 275 kts 114°
2026-05-05 05:32 52.29288 4.97580 6634 ft 278 kts 106°
2026-05-05 05:32 52.28787 5.00662 7585 ft 284 kts 107°
2026-05-05 05:32 52.28261 5.03803 8518 ft 289 kts 107°
2026-05-05 05:33 52.27716 5.06987 9437 ft 294 kts 108°
2026-05-05 05:33 52.27149 5.10234 10290 ft 301 kts 108°
2026-05-05 05:33 52.26550 5.13614 10781 ft 320 kts 108°
2026-05-05 05:33 52.25912 5.17200 11301 ft 336 kts 108°
2026-05-05 05:34 52.25247 5.20922 11920 ft 346 kts 108°
2026-05-05 05:34 52.24541 5.24679 12782 ft 348 kts 114°
2026-05-05 05:34 52.23306 5.28028 13554 ft 351 kts 128°
2026-05-05 05:34 52.21882 5.31366 14248 ft 356 kts 126°
2026-05-05 05:35 52.20471 5.34705 14965 ft 360 kts 126°
2026-05-05 05:35 52.19050 5.38025 15644 ft 363 kts 127°
2026-05-05 05:35 52.17587 5.41407 16330 ft 367 kts 127°
2026-05-05 05:35 52.16105 5.44816 16993 ft 371 kts 127°
2026-05-05 05:36 52.14605 5.48257 17646 ft 375 kts 127°
2026-05-05 05:36 52.13067 5.51779 18289 ft 378 kts 128°
2026-05-05 05:36 52.11555 5.55236 18837 ft 382 kts 128°
2026-05-05 05:36 52.10009 5.58764 19391 ft 385 kts 128°
2026-05-05 05:37 52.08446 5.62327 19929 ft 388 kts 128°
2026-05-05 05:37 52.06868 5.65920 20467 ft 392 kts 128°
2026-05-05 05:37 52.05147 5.69346 20986 ft 393 kts 134°
2026-05-05 05:37 52.03337 5.72709 21507 ft 397 kts 134°
2026-05-05 05:38 52.01526 5.76111 22027 ft 400 kts 134°
2026-05-05 05:38 51.99704 5.79551 22548 ft 403 kts 134°
2026-05-05 05:38 51.97872 5.83015 23061 ft 406 kts 135°
2026-05-05 05:38 51.96012 5.86486 23562 ft 409 kts 135°
2026-05-05 05:39 51.94137 5.89983 23965 ft 413 kts 135°
2026-05-05 05:39 51.92251 5.93497 24386 ft 415 kts 135°
2026-05-05 05:39 51.90345 5.97045 24793 ft 418 kts 135°
2026-05-05 05:39 51.88431 6.00603 25190 ft 421 kts 135°
2026-05-05 05:40 51.86501 6.04186 25582 ft 423 kts 136°
2026-05-05 05:40 51.84556 6.07772 25968 ft 426 kts 136°
2026-05-05 05:40 51.82594 6.11380 26342 ft 428 kts 136°
2026-05-05 05:40 51.80620 6.15006 26724 ft 431 kts 136°
2026-05-05 05:41 51.78633 6.18651 27109 ft 434 kts 136°
2026-05-05 05:41 51.76631 6.22317 27481 ft 436 kts 136°
2026-05-05 05:41 51.74619 6.25991 27846 ft 438 kts 136°
2026-05-05 05:41 51.72595 6.29683 28201 ft 441 kts 136°
2026-05-05 05:42 51.70555 6.33396 28547 ft 443 kts 136°
2026-05-05 05:42 51.68510 6.37117 28895 ft 445 kts 136°
2026-05-05 05:42 51.66451 6.40856 29240 ft 447 kts 137°
2026-05-05 05:42 51.64375 6.44620 29567 ft 450 kts 137°
2026-05-05 05:43 51.62293 6.48391 29901 ft 452 kts 137°
2026-05-05 05:43 51.60201 6.52176 30194 ft 454 kts 137°
2026-05-05 05:43 51.58124 6.55928 30479 ft 456 kts 137°
2026-05-05 05:43 51.55985 6.59786 30767 ft 457 kts 137°
2026-05-05 05:44 51.53890 6.63556 31051 ft 459 kts 137°
2026-05-05 05:44 51.51765 6.67378 31325 ft 460 kts 137°
2026-05-05 05:44 51.49626 6.71217 31615 ft 461 kts 137°
2026-05-05 05:44 51.47482 6.75059 31928 ft 463 kts 137°
2026-05-05 05:45 51.45335 6.78902 32186 ft 464 kts 137°
2026-05-05 05:45 51.43177 6.82759 32519 ft 464 kts 137°
2026-05-05 05:45 51.41018 6.86598 32911 ft 462 kts 139°
2026-05-05 05:45 51.38730 6.90154 33305 ft 457 kts 141°
2026-05-05 05:46 51.36433 6.93676 33694 ft 457 kts 141°
2026-05-05 05:46 51.34151 6.97206 34035 ft 456 kts 141°
2026-05-05 05:46 51.31880 7.00733 34322 ft 455 kts 141°
2026-05-05 05:46 51.29607 7.04261 34592 ft 455 kts 141°
2026-05-05 05:47 51.27339 7.07779 34849 ft 455 kts 141°
2026-05-05 05:47 51.25064 7.11303 35108 ft 455 kts 141°
2026-05-05 05:47 51.22792 7.14817 35361 ft 455 kts 141°
2026-05-05 05:47 51.20517 7.18332 35614 ft 455 kts 141°
2026-05-05 05:48 51.18246 7.21833 35861 ft 454 kts 141°
2026-05-05 05:48 51.15975 7.25331 36105 ft 454 kts 141°
2026-05-05 05:48 51.13702 7.28826 36354 ft 454 kts 141°
2026-05-05 05:48 51.11431 7.32313 36597 ft 454 kts 141°
2026-05-05 05:49 51.09161 7.35795 36841 ft 453 kts 141°
2026-05-05 05:49 51.06917 7.39231 37081 ft 453 kts 141°
2026-05-05 05:49 51.04649 7.42700 37307 ft 453 kts 141°
2026-05-05 05:49 51.02378 7.46166 37520 ft 452 kts 141°
2026-05-05 05:50 51.00108 7.49627 37740 ft 452 kts 141°
2026-05-05 05:50 50.97839 7.53082 37944 ft 451 kts 141°
2026-05-05 05:50 50.95574 7.56524 38128 ft 451 kts 140°
2026-05-05 05:50 50.93310 7.59962 38315 ft 451 kts 141°
2026-05-05 05:51 50.91044 7.63398 38493 ft 451 kts 140°
2026-05-05 05:51 50.88777 7.66829 38639 ft 450 kts 140°
2026-05-05 05:51 50.86512 7.70257 38744 ft 450 kts 140°
2026-05-05 05:51 50.84243 7.73680 38873 ft 450 kts 141°
2026-05-05 05:52 50.79686 7.80477 38904 ft 450 kts 141°
2026-05-05 05:52 50.75132 7.87257 38913 ft 450 kts 141°
2026-05-05 05:53 50.70585 7.94011 38918 ft 449 kts 141°
2026-05-05 05:53 50.66030 8.00757 38905 ft 449 kts 141°
2026-05-05 05:54 50.61474 8.07485 38906 ft 448 kts 141°
2026-05-05 05:54 50.57385 8.14962 38915 ft 453 kts 133°
2026-05-05 05:55 50.53437 8.22697 38905 ft 453 kts 133°
2026-05-05 05:55 50.49497 8.30423 38898 ft 453 kts 134°
2026-05-05 05:56 50.45556 8.38130 38895 ft 452 kts 134°
2026-05-05 05:56 50.41621 8.45803 38888 ft 451 kts 134°
2026-05-05 05:57 50.37673 8.53339 38881 ft 447 kts 139°
2026-05-05 05:57 50.33396 8.60371 38884 ft 446 kts 138°
2026-05-05 05:58 50.29163 8.67447 38889 ft 445 kts 138°
2026-05-05 05:58 50.24939 8.74507 38883 ft 444 kts 139°
2026-05-05 05:59 50.20723 8.81537 38883 ft 443 kts 139°
2026-05-05 05:59 50.16505 8.88552 38883 ft 443 kts 139°
2026-05-05 06:00 50.12290 8.95541 38886 ft 442 kts 139°
2026-05-05 06:00 50.08074 9.02515 38881 ft 442 kts 139°
2026-05-05 06:01 50.03856 9.09472 38887 ft 441 kts 139°
2026-05-05 06:01 49.99640 9.16406 38882 ft 441 kts 139°
2026-05-05 06:02 49.95424 9.23321 38883 ft 440 kts 139°
2026-05-05 06:02 49.91212 9.30211 38880 ft 440 kts 139°
2026-05-05 06:03 49.86996 9.37090 38884 ft 440 kts 139°
2026-05-05 06:03 49.82780 9.43949 38880 ft 440 kts 139°
2026-05-05 06:04 49.78557 9.50801 38881 ft 440 kts 139°
2026-05-05 06:04 49.74331 9.57639 38884 ft 440 kts 139°
2026-05-05 06:05 49.70124 9.64428 38879 ft 440 kts 139°
2026-05-05 06:05 49.65859 9.71293 38875 ft 440 kts 139°
2026-05-05 06:06 49.61618 9.78101 38877 ft 440 kts 139°
2026-05-05 06:06 49.57408 9.84841 38879 ft 441 kts 139°
2026-05-05 06:07 49.53151 9.91638 38877 ft 441 kts 139°
2026-05-05 06:07 49.48889 9.98426 38887 ft 441 kts 139°
2026-05-05 06:08 49.44614 10.05214 38885 ft 442 kts 139°
2026-05-05 06:08 49.41029 10.10894 38878 ft 442 kts 139°
2026-05-05 06:09 49.36744 10.17666 38882 ft 442 kts 139°
2026-05-05 06:09 49.32455 10.24429 38895 ft 443 kts 139°
2026-05-05 06:10 49.28156 10.31191 38893 ft 443 kts 139°
2026-05-05 06:10 49.23867 10.37889 38904 ft 442 kts 140°
2026-05-05 06:11 49.19445 10.44440 38903 ft 443 kts 140°
2026-05-05 06:11 49.15024 10.51011 38903 ft 443 kts 140°
2026-05-05 06:12 49.10607 10.57564 38907 ft 444 kts 140°
2026-05-05 06:12 49.06175 10.64123 38905 ft 444 kts 140°
2026-05-05 06:13 49.01734 10.70679 38908 ft 445 kts 140°
2026-05-05 06:13 48.97285 10.77227 38895 ft 445 kts 140°
2026-05-05 06:14 48.92826 10.83774 38893 ft 445 kts 141°
2026-05-05 06:14 48.88362 10.90312 38883 ft 446 kts 140°
2026-05-05 06:15 48.83890 10.96843 38884 ft 446 kts 141°
2026-05-05 06:15 48.79415 11.03362 38883 ft 446 kts 141°
2026-05-05 06:16 48.74937 11.09869 38882 ft 446 kts 140°
2026-05-05 06:16 48.70451 11.16370 38877 ft 446 kts 140°
2026-05-05 06:17 48.65994 11.22817 38881 ft 446 kts 140°
2026-05-05 06:17 48.61759 11.29724 38889 ft 449 kts 136°
2026-05-05 06:18 48.57579 11.36723 38877 ft 448 kts 136°
2026-05-05 06:18 48.53378 11.43689 38878 ft 449 kts 136°
2026-05-05 06:19 48.49173 11.50637 38872 ft 448 kts 136°
2026-05-05 06:19 48.44962 11.57576 38880 ft 448 kts 136°
2026-05-05 06:20 48.40751 11.64497 38882 ft 448 kts 136°
2026-05-05 06:20 48.36532 11.71414 38878 ft 448 kts 136°
2026-05-05 06:21 48.32310 11.78316 38879 ft 448 kts 136°
2026-05-05 06:21 48.28085 11.85205 38881 ft 448 kts 136°
2026-05-05 06:22 48.23853 11.92088 38877 ft 448 kts 136°
2026-05-05 06:22 48.19618 11.98959 38881 ft 449 kts 136°
2026-05-05 06:23 48.15373 12.05827 38869 ft 448 kts 136°
2026-05-05 06:23 48.11162 12.12622 38866 ft 449 kts 136°
2026-05-05 06:24 48.06915 12.19457 38863 ft 449 kts 136°
2026-05-05 06:24 48.02662 12.26283 38859 ft 448 kts 136°
2026-05-05 06:25 47.98409 12.33094 38864 ft 449 kts 136°
2026-05-05 06:25 47.94145 12.39903 38863 ft 449 kts 136°
2026-05-05 06:26 47.89881 12.46694 38859 ft 449 kts 136°
2026-05-05 06:26 47.85607 12.53485 38868 ft 449 kts 136°
2026-05-05 06:27 47.79194 12.63641 38869 ft 449 kts 136°
2026-05-05 06:28 47.74908 12.70408 38874 ft 449 kts 136°
2026-05-05 06:28 47.70619 12.77168 38883 ft 450 kts 136°
2026-05-05 06:29 47.66239 12.83779 38884 ft 449 kts 139°
2026-05-05 06:29 47.61821 12.90315 38872 ft 449 kts 138°
2026-05-05 06:30 47.57405 12.96850 38874 ft 449 kts 138°
2026-05-05 06:30 47.52977 13.03386 38881 ft 450 kts 138°
2026-05-05 06:31 47.48546 13.09912 38887 ft 449 kts 138°
2026-05-05 06:31 47.44116 13.16417 38878 ft 449 kts 138°
2026-05-05 06:32 47.39672 13.22928 38901 ft 450 kts 138°
2026-05-05 06:32 47.35230 13.29422 38908 ft 449 kts 138°
2026-05-05 06:33 47.31264 13.36541 38934 ft 453 kts 125°
2026-05-05 06:33 47.27808 13.44336 38935 ft 455 kts 126°
2026-05-05 06:34 47.24388 13.52086 38945 ft 455 kts 126°
2026-05-05 06:34 47.20934 13.59901 38943 ft 455 kts 126°
2026-05-05 06:35 47.17479 13.67700 38916 ft 455 kts 126°
2026-05-05 06:35 47.14019 13.75487 38962 ft 456 kts 126°
2026-05-05 06:36 47.10547 13.83276 38947 ft 455 kts 126°
2026-05-05 06:36 47.07075 13.91047 38958 ft 455 kts 126°
2026-05-05 06:37 47.03597 13.98808 38952 ft 455 kts 126°
2026-05-05 06:37 47.00121 14.06542 38966 ft 455 kts 126°
2026-05-05 06:38 46.96632 14.14284 38961 ft 455 kts 126°
2026-05-05 06:38 46.93137 14.22019 38974 ft 455 kts 126°
2026-05-05 06:39 46.89636 14.29744 38979 ft 456 kts 126°
2026-05-05 06:39 46.86131 14.37457 38983 ft 456 kts 126°
2026-05-05 06:40 46.82616 14.45171 38984 ft 456 kts 126°
2026-05-05 06:40 46.79093 14.52882 38982 ft 456 kts 126°
2026-05-05 06:41 46.75568 14.60573 38982 ft 456 kts 126°
2026-05-05 06:41 46.72061 14.68206 38976 ft 456 kts 126°
2026-05-05 06:42 46.68520 14.75890 38976 ft 457 kts 126°
2026-05-05 06:42 46.64977 14.83563 38967 ft 457 kts 126°
2026-05-05 06:43 46.61426 14.91218 38967 ft 456 kts 128°
2026-05-05 06:43 46.57300 14.98164 38973 ft 454 kts 134°
2026-05-05 06:44 46.53089 15.05014 38969 ft 454 kts 134°
2026-05-05 06:44 46.48868 15.11849 38967 ft 454 kts 134°
2026-05-05 06:45 46.44645 15.18669 38970 ft 455 kts 134°
2026-05-05 06:45 46.40415 15.25483 38972 ft 455 kts 134°
2026-05-05 06:46 46.36178 15.32292 38973 ft 455 kts 134°
2026-05-05 06:46 46.31933 15.39097 38974 ft 455 kts 134°
2026-05-05 06:47 46.27691 15.45880 38977 ft 455 kts 134°
2026-05-05 06:47 46.23434 15.52669 38977 ft 455 kts 135°
2026-05-05 06:48 46.19177 15.59444 38985 ft 456 kts 135°
2026-05-05 06:48 46.14791 15.65935 39014 ft 455 kts 138°
2026-05-05 06:49 46.10298 15.72382 38996 ft 455 kts 137°
2026-05-05 06:49 46.05818 15.78825 39014 ft 456 kts 137°
2026-05-05 06:50 46.01324 15.85273 39011 ft 456 kts 137°
2026-05-05 06:50 45.96822 15.91719 39008 ft 457 kts 137°
2026-05-05 06:51 45.92315 15.98156 39013 ft 457 kts 138°
2026-05-05 06:51 45.87803 16.04584 39025 ft 457 kts 138°
2026-05-05 06:52 45.83275 16.11019 39022 ft 458 kts 138°
2026-05-05 06:52 45.78740 16.17448 39017 ft 459 kts 138°
2026-05-05 06:53 45.74200 16.23870 39020 ft 459 kts 138°
2026-05-05 06:53 45.69650 16.30289 39019 ft 459 kts 138°
2026-05-05 06:54 45.65103 16.36690 39021 ft 460 kts 138°
2026-05-05 06:54 45.60533 16.43107 39019 ft 460 kts 138°
2026-05-05 06:55 45.55994 16.49466 39023 ft 460 kts 138°
2026-05-05 06:55 45.51415 16.55864 39026 ft 461 kts 138°
2026-05-05 06:56 45.46829 16.62257 39030 ft 461 kts 139°
2026-05-05 06:56 45.42236 16.68645 39033 ft 462 kts 139°
2026-05-05 06:57 45.37631 16.75034 39030 ft 463 kts 139°
2026-05-05 06:57 45.33016 16.81421 39032 ft 463 kts 139°
2026-05-05 06:58 45.28394 16.87807 39036 ft 464 kts 139°
2026-05-05 06:58 45.24542 16.93116 39035 ft 465 kts 139°
2026-05-05 06:59 45.19854 16.99430 39039 ft 465 kts 139°
2026-05-05 06:59 45.15158 17.05729 39042 ft 465 kts 139°
2026-05-05 07:00 45.10457 17.12023 39043 ft 465 kts 139°
2026-05-05 07:00 45.05748 17.18314 39047 ft 466 kts 139°
2026-05-05 07:01 45.01029 17.24602 39047 ft 466 kts 140°
2026-05-05 07:01 44.96301 17.30888 39046 ft 467 kts 140°
2026-05-05 07:02 44.91567 17.37167 39046 ft 467 kts 140°
2026-05-05 07:02 44.86829 17.43436 39044 ft 467 kts 140°
2026-05-05 07:03 44.82077 17.49709 39047 ft 468 kts 140°
2026-05-05 07:03 44.77354 17.55929 39051 ft 468 kts 140°
2026-05-05 07:04 44.72590 17.62187 39051 ft 468 kts 140°
2026-05-05 07:04 44.67826 17.68431 39053 ft 469 kts 140°
2026-05-05 07:05 44.63051 17.74676 39059 ft 469 kts 140°
2026-05-05 07:05 44.58266 17.80918 39061 ft 470 kts 140°
2026-05-05 07:06 44.53478 17.87150 39067 ft 470 kts 140°
2026-05-05 07:06 44.48681 17.93378 39067 ft 470 kts 140°
2026-05-05 07:07 44.43878 17.99599 39071 ft 471 kts 140°
2026-05-05 07:07 44.39065 18.05820 39075 ft 471 kts 140°
2026-05-05 07:08 44.34240 18.12040 39081 ft 472 kts 140°
2026-05-05 07:08 44.29414 18.18247 39089 ft 472 kts 140°
2026-05-05 07:09 44.24579 18.24452 39091 ft 472 kts 140°
2026-05-05 07:09 44.19750 18.30635 39089 ft 473 kts 140°
2026-05-05 07:10 44.14902 18.36828 39097 ft 473 kts 140°
2026-05-05 07:10 44.10044 18.43018 39100 ft 474 kts 140°
2026-05-05 07:11 44.05179 18.49204 39104 ft 474 kts 140°
2026-05-05 07:11 44.00596 18.55017 39101 ft 474 kts 140°
2026-05-05 07:12 43.95924 18.60929 39104 ft 475 kts 140°
2026-05-05 07:12 43.91036 18.67103 39106 ft 475 kts 140°
2026-05-05 07:13 43.86147 18.73263 39109 ft 476 kts 140°
2026-05-05 07:13 43.81241 18.79430 39114 ft 476 kts 140°
2026-05-05 07:14 43.76331 18.85586 39118 ft 476 kts 140°
2026-05-05 07:14 43.71415 18.91737 39120 ft 477 kts 140°
2026-05-05 07:15 43.66490 18.97888 39120 ft 477 kts 140°
2026-05-05 07:15 43.61555 19.04037 39119 ft 478 kts 140°
2026-05-05 07:16 43.56614 19.10180 39118 ft 478 kts 140°
2026-05-05 07:16 43.51581 19.16159 39122 ft 477 kts 142°
2026-05-05 07:17 43.47306 19.20983 39122 ft 478 kts 142°
2026-05-05 07:17 43.42225 19.26750 39125 ft 479 kts 142°
2026-05-05 07:18 43.37081 19.32582 39129 ft 479 kts 142°
2026-05-05 07:18 43.31928 19.38408 39129 ft 480 kts 142°
2026-05-05 07:19 43.26799 19.44195 39135 ft 481 kts 142°
2026-05-05 07:19 43.21596 19.50053 39137 ft 481 kts 142°
2026-05-05 07:20 43.16448 19.55835 39131 ft 482 kts 142°
2026-05-05 07:20 43.11226 19.61688 39132 ft 482 kts 142°
2026-05-05 07:21 43.06075 19.67447 39137 ft 482 kts 142°
2026-05-05 07:21 43.00875 19.73249 39135 ft 482 kts 142°
2026-05-05 07:22 42.95664 19.79048 39132 ft 483 kts 142°
2026-05-05 07:22 42.90451 19.84839 39133 ft 484 kts 142°
2026-05-05 07:23 42.85227 19.90627 39143 ft 484 kts 142°
2026-05-05 07:23 42.79993 19.96416 39140 ft 485 kts 142°
2026-05-05 07:24 42.74797 20.02279 39127 ft 486 kts 134°
2026-05-05 07:24 42.70463 20.09321 39134 ft 487 kts 130°
2026-05-05 07:25 42.66144 20.16418 39139 ft 487 kts 129°
2026-05-05 07:25 42.61826 20.23524 39146 ft 488 kts 129°
2026-05-05 07:26 42.57509 20.30619 39141 ft 488 kts 129°
2026-05-05 07:26 42.53175 20.37720 39150 ft 488 kts 129°
2026-05-05 07:27 42.48844 20.44799 39147 ft 488 kts 129°
2026-05-05 07:27 42.44504 20.51878 39147 ft 488 kts 129°
2026-05-05 07:28 42.40161 20.58943 39146 ft 488 kts 129°
2026-05-05 07:28 42.35812 20.66002 39147 ft 488 kts 129°
2026-05-05 07:29 42.31488 20.73004 39147 ft 489 kts 129°
2026-05-05 07:29 42.27133 20.80038 39146 ft 488 kts 129°
2026-05-05 07:30 42.22771 20.87068 39148 ft 488 kts 129°
2026-05-05 07:30 42.16228 20.97583 39152 ft 488 kts 129°
2026-05-05 07:31 42.11859 21.04573 39124 ft 487 kts 131°
2026-05-05 07:31 42.07000 21.10953 39143 ft 489 kts 136°
2026-05-05 07:32 42.02065 21.17233 39154 ft 488 kts 136°
2026-05-05 07:32 41.97128 21.23490 39159 ft 488 kts 136°
2026-05-05 07:33 41.92179 21.29748 39111 ft 488 kts 136°
2026-05-05 07:33 41.87237 21.35984 39163 ft 488 kts 136°
2026-05-05 07:34 41.82291 21.42210 39157 ft 487 kts 136°
2026-05-05 07:34 41.77376 21.48383 39150 ft 487 kts 136°
2026-05-05 07:35 41.72432 21.54579 39148 ft 486 kts 136°
2026-05-05 07:35 41.67491 21.60758 39150 ft 486 kts 136°
2026-05-05 07:36 41.62547 21.66927 39149 ft 486 kts 136°
2026-05-05 07:36 41.57604 21.73082 39151 ft 486 kts 136°
2026-05-05 07:37 41.52661 21.79222 39149 ft 485 kts 136°
2026-05-05 07:37 41.47717 21.85350 39144 ft 485 kts 136°
2026-05-05 07:38 41.42771 21.91468 39143 ft 485 kts 136°
2026-05-05 07:38 41.37826 21.97571 39143 ft 485 kts 136°
2026-05-05 07:39 41.32875 22.03668 39139 ft 485 kts 136°
2026-05-05 07:39 41.27926 22.09751 39134 ft 484 kts 136°
2026-05-05 07:40 41.22977 22.15820 39126 ft 484 kts 136°
2026-05-05 07:40 41.18026 22.21881 39125 ft 484 kts 137°
2026-05-05 07:41 41.12839 22.27562 39118 ft 483 kts 141°
2026-05-05 07:41 41.07611 22.33169 39117 ft 484 kts 141°
2026-05-05 07:42 41.02390 22.38789 39104 ft 483 kts 141°
2026-05-05 07:42 40.97203 22.44363 39110 ft 484 kts 141°
2026-05-05 07:43 40.91977 22.49968 39103 ft 484 kts 141°
2026-05-05 07:43 40.86746 22.55566 39103 ft 484 kts 141°
2026-05-05 07:44 40.81518 22.61149 39106 ft 484 kts 141°
2026-05-05 07:44 40.76276 22.66735 39108 ft 484 kts 141°
2026-05-05 07:45 40.71035 22.72310 39098 ft 484 kts 141°
2026-05-05 07:45 40.65785 22.77881 39099 ft 484 kts 141°
2026-05-05 07:46 40.60535 22.83441 39099 ft 484 kts 141°
2026-05-05 07:46 40.55280 22.88994 39104 ft 485 kts 141°
2026-05-05 07:47 40.50022 22.94541 39107 ft 485 kts 141°
2026-05-05 07:47 40.44874 23.00249 39097 ft 483 kts 132°
2026-05-05 07:48 40.40235 23.06656 39099 ft 484 kts 133°
2026-05-05 07:48 40.35625 23.13021 39098 ft 484 kts 133°
2026-05-05 07:49 40.31736 23.18385 39093 ft 485 kts 133°
2026-05-05 07:49 40.27090 23.24782 39085 ft 485 kts 133°
2026-05-05 07:50 40.22437 23.31173 39080 ft 485 kts 133°
2026-05-05 07:50 40.17783 23.37553 39077 ft 484 kts 133°
2026-05-05 07:51 40.13127 23.43922 39077 ft 484 kts 133°
2026-05-05 07:51 40.08467 23.50282 39079 ft 484 kts 133°
2026-05-05 07:52 40.03808 23.56628 39076 ft 484 kts 133°
2026-05-05 07:52 39.99192 23.62902 39076 ft 484 kts 133°
2026-05-05 07:53 39.94526 23.69233 39075 ft 484 kts 133°
2026-05-05 07:53 39.89857 23.75552 39077 ft 484 kts 133°
2026-05-05 07:54 39.85185 23.81862 39077 ft 484 kts 133°
2026-05-05 07:54 39.80508 23.88166 39077 ft 484 kts 133°
2026-05-05 07:55 39.75824 23.94467 39079 ft 484 kts 133°
2026-05-05 07:55 39.71138 24.00756 39077 ft 484 kts 133°
2026-05-05 07:56 39.66448 24.07039 39075 ft 484 kts 133°
2026-05-05 07:56 39.61752 24.13317 39080 ft 485 kts 133°
2026-05-05 07:57 39.57057 24.19580 39080 ft 485 kts 133°
2026-05-05 07:57 39.52352 24.25842 39079 ft 485 kts 133°
2026-05-05 07:58 39.47646 24.32094 39078 ft 485 kts 134°
2026-05-05 07:58 39.42934 24.38342 39082 ft 485 kts 134°
2026-05-05 07:59 39.38221 24.44580 39079 ft 485 kts 134°
2026-05-05 07:59 39.33516 24.50817 39086 ft 485 kts 133°
2026-05-05 08:00 39.28838 24.57078 39086 ft 484 kts 133°
2026-05-05 08:00 39.24184 24.63289 39086 ft 484 kts 133°
2026-05-05 08:01 39.19498 24.69530 39086 ft 484 kts 133°
2026-05-05 08:01 39.14808 24.75763 39086 ft 484 kts 133°
2026-05-05 08:02 39.10121 24.81944 39090 ft 484 kts 134°
2026-05-05 08:02 39.05373 24.88105 39092 ft 485 kts 134°
2026-05-05 08:03 39.00627 24.94262 38451 ft 485 kts 134°
2026-05-05 08:03 38.98225 24.97373 37310 ft 494 kts 134°
2026-05-05 08:03 38.95799 25.00513 36541 ft 495 kts 134°
2026-05-05 08:04 38.93389 25.03627 36184 ft 486 kts 134°
2026-05-05 08:04 38.91026 25.06678 35798 ft 479 kts 134°
2026-05-05 08:04 38.88680 25.09705 35244 ft 477 kts 134°
2026-05-05 08:04 38.86342 25.12719 34671 ft 476 kts 134°
2026-05-05 08:05 38.84011 25.15720 34142 ft 474 kts 134°
2026-05-05 08:05 38.81689 25.18706 33567 ft 471 kts 134°
2026-05-05 08:05 38.79381 25.21670 33022 ft 468 kts 134°
2026-05-05 08:05 38.77088 25.24614 32519 ft 464 kts 134°
2026-05-05 08:06 38.74814 25.27530 32017 ft 461 kts 134°
2026-05-05 08:06 38.72557 25.30422 31515 ft 458 kts 134°
2026-05-05 08:06 38.70314 25.33293 31017 ft 455 kts 135°
2026-05-05 08:06 38.68083 25.36146 30527 ft 452 kts 135°
2026-05-05 08:07 38.65866 25.38979 30017 ft 449 kts 135°
2026-05-05 08:07 38.63665 25.41788 29470 ft 446 kts 135°
2026-05-05 08:07 38.61481 25.44575 29000 ft 441 kts 135°
2026-05-05 08:07 38.59321 25.47327 28545 ft 436 kts 135°
2026-05-05 08:08 38.57191 25.50038 28103 ft 426 kts 135°
2026-05-05 08:08 38.55117 25.52677 27686 ft 417 kts 136°
2026-05-05 08:08 38.53076 25.55271 27249 ft 410 kts 136°
2026-05-05 08:08 38.51074 25.57812 26835 ft 403 kts 136°
2026-05-05 08:09 38.49104 25.60312 26425 ft 396 kts 136°
2026-05-05 08:09 38.47164 25.62772 26035 ft 390 kts 136°
2026-05-05 08:09 38.45252 25.65194 25649 ft 384 kts 136°
2026-05-05 08:09 38.43367 25.67579 25280 ft 379 kts 136°
2026-05-05 08:10 38.41510 25.69929 24903 ft 373 kts 136°
2026-05-05 08:10 38.39676 25.72248 24537 ft 369 kts 136°
2026-05-05 08:10 38.37838 25.74572 24161 ft 375 kts 136°
2026-05-05 08:10 38.35979 25.76925 23753 ft 378 kts 135°
2026-05-05 08:11 38.34112 25.79287 23367 ft 378 kts 135°
2026-05-05 08:11 38.32251 25.81640 22977 ft 377 kts 135°
2026-05-05 08:11 38.30395 25.83986 22612 ft 375 kts 135°
2026-05-05 08:11 38.28547 25.86319 22245 ft 373 kts 135°
2026-05-05 08:12 38.26710 25.88637 21891 ft 371 kts 135°
2026-05-05 08:12 38.24867 25.90876 21499 ft 371 kts 140°
2026-05-05 08:12 38.22920 25.93012 21118 ft 369 kts 140°
2026-05-05 08:12 38.20993 25.95144 20785 ft 366 kts 139°
2026-05-05 08:13 38.19086 25.97264 20465 ft 363 kts 139°
2026-05-05 08:13 38.17197 25.99368 20151 ft 360 kts 139°
2026-05-05 08:13 38.15325 26.01454 19815 ft 358 kts 139°
2026-05-05 08:13 38.13454 26.03536 19472 ft 356 kts 139°
2026-05-05 08:14 38.11602 26.05599 19122 ft 354 kts 139°
2026-05-05 08:14 38.09756 26.07653 18807 ft 351 kts 139°
2026-05-05 08:14 38.07924 26.09689 18482 ft 349 kts 139°
2026-05-05 08:14 38.06100 26.11712 18095 ft 348 kts 139°
2026-05-05 08:15 38.04277 26.13722 17728 ft 346 kts 139°
2026-05-05 08:15 38.02469 26.15715 17399 ft 343 kts 139°
2026-05-05 08:15 38.00680 26.17687 17075 ft 340 kts 139°
2026-05-05 08:15 37.98901 26.19646 16749 ft 337 kts 138°
2026-05-05 08:16 37.97138 26.21586 16429 ft 334 kts 138°
2026-05-05 08:16 37.95390 26.23508 16100 ft 332 kts 138°
2026-05-05 08:16 37.93650 26.25420 15777 ft 330 kts 137°
2026-05-05 08:16 37.91925 26.27314 15466 ft 328 kts 137°
2026-05-05 08:17 37.90207 26.29200 15142 ft 326 kts 137°
2026-05-05 08:17 37.88483 26.31092 14816 ft 330 kts 137°
2026-05-05 08:17 37.86735 26.33007 14477 ft 335 kts 137°
2026-05-05 08:17 37.84965 26.34939 14101 ft 336 kts 136°
2026-05-05 08:18 37.83202 26.36863 13752 ft 334 kts 136°
2026-05-05 08:18 37.81444 26.38781 13382 ft 333 kts 136°
2026-05-05 08:18 37.79698 26.40684 13038 ft 330 kts 136°
2026-05-05 08:18 37.77962 26.42575 12701 ft 328 kts 136°
2026-05-05 08:19 37.76243 26.44447 12372 ft 325 kts 136°
2026-05-05 08:19 37.74554 26.46284 12051 ft 323 kts 136°
2026-05-05 08:19 37.72855 26.48132 11714 ft 321 kts 135°
2026-05-05 08:19 37.71146 26.49990 11383 ft 319 kts 135°
2026-05-05 08:20 37.69609 26.51917 11031 ft 312 kts 119°
2026-05-05 08:20 37.68729 26.54342 10706 ft 301 kts 105°
2026-05-05 08:20 37.67796 26.56723 10389 ft 305 kts 118°
2026-05-05 08:20 37.66482 26.58813 10254 ft 302 kts 129°
2026-05-05 08:21 37.64920 26.60549 10084 ft 299 kts 139°
2026-05-05 08:21 37.63149 26.61923 9765 ft 300 kts 150°
2026-05-05 08:21 37.61200 26.62881 9440 ft 301 kts 161°
2026-05-05 08:21 37.59242 26.63768 9125 ft 298 kts 153°
2026-05-05 08:22 37.57394 26.64918 8823 ft 294 kts 147°
2026-05-05 08:22 37.55656 26.66246 8523 ft 290 kts 142°
2026-05-05 08:22 37.54035 26.67735 8231 ft 286 kts 136°
2026-05-05 08:22 37.52540 26.69369 7932 ft 282 kts 131°
2026-05-05 08:23 37.51182 26.71125 7652 ft 278 kts 126°
2026-05-05 08:23 37.49954 26.73001 7281 ft 277 kts 121°
2026-05-05 08:23 37.48861 26.74980 6745 ft 274 kts 116°
2026-05-05 08:23 37.47914 26.77033 6264 ft 269 kts 111°
2026-05-05 08:24 37.47117 26.79139 5770 ft 264 kts 107°
2026-05-05 08:24 37.46468 26.81275 5285 ft 260 kts 103°
2026-05-05 08:24 37.45960 26.83434 4801 ft 255 kts 97°
2026-05-05 08:24 37.45951 26.85592 4279 ft 242 kts 70°
2026-05-05 08:25 37.46701 26.87445 3717 ft 237 kts 46°
2026-05-05 08:25 37.47967 26.88731 3194 ft 234 kts 24°
2026-05-05 08:25 37.49477 26.89306 3043 ft 221 kts
2026-05-05 08:25 37.50950 26.89541 3066 ft 206 kts
2026-05-05 08:26 37.52355 26.89718 3060 ft 197 kts
2026-05-05 08:26 37.53662 26.89849 3033 ft 180 kts
2026-05-05 08:26 37.54848 26.89947 2985 ft 163 kts
2026-05-05 08:26 37.55960 26.90028 2777 ft 159 kts
2026-05-05 08:27 37.57059 26.90100 2462 ft 161 kts
2026-05-05 08:27 37.58169 26.90167 2198 ft 155 kts
2026-05-05 08:27 37.59238 26.90226 2019 ft 158 kts
2026-05-05 08:27 37.60326 26.90082 2045 ft 157 kts 347°
2026-05-05 08:28 37.61408 26.89776 2115 ft 159 kts 348°
2026-05-05 08:28 37.62466 26.89497 2077 ft 153 kts 349°
2026-05-05 08:28 37.63504 26.89212 1985 ft 152 kts 349°
2026-05-05 08:28 37.64488 26.88868 1791 ft 146 kts 329°
2026-05-05 08:29 37.65283 26.88103 1546 ft 141 kts 322°
2026-05-05 08:29 37.66037 26.87349 1621 ft 138 kts 318°
2026-05-05 08:29 37.66759 26.86541 1556 ft 138 kts 328°
2026-05-05 08:30 37.68476 26.86809 1362 ft 140 kts 45°
2026-05-05 08:30 37.69001 26.87876 822 ft 150 kts 66°
2026-05-05 08:30 37.69046 26.89202 361 ft 154 kts 93°
2026-05-05 08:30 37.68959 26.90501 34 ft 141 kts 88°
2026-05-05 08:31 37.68915 26.91375 31 ft 43 kts 95°
2026-05-05 08:31 37.68895 26.91650 31 ft 15 kts 86°
2026-05-05 08:31 37.68967 26.91674 31 ft 14 kts 316°
2026-05-05 08:31 37.68995 26.91552 31 ft 16 kts 279°
2026-05-05 08:32 37.68997 26.91427 31 ft 9 kts 244°
2026-05-05 08:32 37.68995 26.91345 31 ft 8 kts 274°
2026-05-05 08:32 37.69012 26.91325 31 ft 2 kts
2026-05-05 08:32 37.69043 26.91328 31 ft 6 kts
2026-05-05 08:33 37.69055 26.91329 31 ft 0 kts